Stations météo

réclame
Mon MeteoGroup
Lichteiland Goeree, Pays-Bas (6320): Température de l'air & dewpoint: 19.04.2018 10:00:00 - 25.04.2018 10:00:00 (CEST)Lichteiland Goeree, Pays-Bas (6320): water temperature: 19.04.2018 10:00:00 - 25.04.2018 10:00:00 (CEST)Lichteiland Goeree, Pays-Bas (6320): Vitesse du vent & gusts: 19.04.2018 10:00:00 - 25.04.2018 10:00:00 (CEST)Lichteiland Goeree, Pays-Bas (6320): Direction du vent: 19.04.2018 10:00:00 - 25.04.2018 10:00:00 (CEST)Lichteiland Goeree, Pays-Bas (6320): reduced air pressure: 19.04.2018 10:00:00 - 25.04.2018 10:00:00 (CEST)Lichteiland Goeree, Pays-Bas (6320): visibility: 19.04.2018 10:00:00 - 25.04.2018 10:00:00 (CEST)
Date & Time tt [°C] td [°C] tw [°C] ff [km/h] ff [knt] fx [km/h] fx [knt] dd ppp [hPa] vv [km]
25.04.2018 10:00:00 9,0 6,6 8,8 26 14 29 16 W 1010,6 10
25.04.2018 09:00:00 9,2 7,2 8,7 24 13 32 18 WNW 1010,3 10
25.04.2018 08:00:00 9,5 7,5 8,7 29 16 32 18 W 1009,4 10
25.04.2018 07:00:00 9,6 7,2 8,7 31 17 40 21 WNW 1008,5 10
25.04.2018 06:00:00 10,2 8,5 8,7 40 21 54 29 W 1007,4 11
25.04.2018 05:00:00 10,5 9,0 8,8 54 29 58 31 WSW 1006,2 9
25.04.2018 04:00:00 10,2 9,0 8,6 55 30 65 35 WSW 1005,9 7
25.04.2018 03:00:00 10,4 9,2 8,8 59 32 68 37 WSW 1006,2 5
25.04.2018 02:00:00 10,9 9,5 - 59 32 65 35 WSW 1006,5 9
25.04.2018 01:00:00 10,7 9,0 8,4 54 29 54 29 SW 1007,1 10
25.04.2018 00:00:00 11,0 9,2 8,6 54 29 58 31 SW 1007,9 10
24.04.2018 23:00:00 10,8 9,4 8,6 52 28 54 29 SW 1008,9 10
24.04.2018 22:00:00 10,9 9,1 8,4 52 28 58 31 SW 1009,7 10
24.04.2018 21:00:00 10,7 8,7 8,6 46 25 50 27 SW 1010,4 10
24.04.2018 20:00:00 10,2 8,7 8,7 31 17 36 19 SW 1011,3 10
24.04.2018 19:00:00 10,5 8,4 8,7 28 15 29 16 SW 1012,1 10
24.04.2018 18:00:00 9,8 8,6 - 24 13 25 14 WSW 1013,2 9
24.04.2018 17:00:00 9,8 8,7 8,6 29 16 40 21 WSW 1013,7 9
24.04.2018 16:00:00 9,5 8,6 8,8 37 20 40 21 WSW 1014,7 6
24.04.2018 15:00:00 9,7 8,6 8,7 34 18 40 21 WSW 1015,2 8
24.04.2018 14:00:00 9,7 8,6 8,8 39 21 40 21 WSW 1015,6 8
24.04.2018 13:00:00 9,8 8,7 8,5 34 18 36 19 WSW 1015,9 8
24.04.2018 12:00:00 9,7 8,5 8,4 39 21 43 23 WSW 1015,9 8
24.04.2018 11:00:00 9,7 8,5 8,5 35 19 40 21 WSW 1015,5 7
24.04.2018 10:00:00 9,5 8,4 8,4 37 20 36 19 WSW 1015,4 7
24.04.2018 09:00:00 9,5 8,3 8,5 39 21 40 21 WSW 1015,1 7
24.04.2018 08:00:00 9,6 8,1 8,5 37 20 36 19 WSW 1014,6 8
24.04.2018 07:00:00 9,5 8,0 8,6 37 20 40 21 WSW 1014,4 8
24.04.2018 06:00:00 9,5 7,8 8,6 41 22 43 23 WSW 1014,0 9
24.04.2018 05:00:00 9,6 7,8 8,5 42 23 50 27 WSW 1014,1 9
24.04.2018 04:00:00 9,7 7,6 8,4 43 23 50 27 WSW 1013,9 10
24.04.2018 03:00:00 9,8 7,6 8,4 48 26 50 27 WSW 1013,9 10
24.04.2018 02:00:00 9,8 7,4 8,4 46 25 50 27 WSW 1014,4 10
24.04.2018 01:00:00 9,7 7,4 8,4 46 25 47 25 WSW 1014,8 10
24.04.2018 00:00:00 9,6 7,5 8,5 42 23 50 27 SW 1015,1 10
23.04.2018 23:00:00 9,7 7,3 8,5 48 26 50 27 SW 1015,6 10
23.04.2018 22:00:00 9,9 7,0 8,6 46 25 50 27 SW 1015,7 10
23.04.2018 21:00:00 9,9 6,7 8,5 46 25 50 27 WSW 1015,5 10
23.04.2018 20:00:00 10,1 6,6 8,6 40 21 47 25 WSW 1015,5 16
23.04.2018 19:00:00 10,1 7,4 8,5 31 17 36 19 SW 1015,9 10
23.04.2018 18:00:00 10,1 7,5 8,6 29 16 32 18 SW 1016,2 12
23.04.2018 17:00:00 9,8 7,8 8,6 22 12 29 16 WSW 1016,6 12
23.04.2018 16:00:00 9,8 7,7 8,6 25 14 32 18 WSW 1016,6 14
23.04.2018 15:00:00 9,5 7,5 8,6 25 14 29 16 WSW 1017,0 14
23.04.2018 14:00:00 9,4 7,5 8,4 29 16 32 18 WSW 1016,5 10
23.04.2018 13:00:00 9,4 7,5 8,4 29 16 36 19 W 1016,3 13
23.04.2018 12:00:00 9,3 7,5 8,4 29 16 32 18 W 1016,0 13
23.04.2018 11:00:00 9,2 7,2 8,4 25 14 36 19 W 1015,7 15
23.04.2018 10:00:00 9,2 7,1 8,4 31 17 36 19 W 1014,9 10
23.04.2018 09:00:00 9,3 7,3 8,4 29 16 29 16 WSW 1014,4 18
23.04.2018 08:00:00 9,4 7,5 8,4 25 14 29 16 WSW 1013,6 17
23.04.2018 07:00:00 9,6 7,6 8,4 25 14 29 16 W 1013,1 15
23.04.2018 06:00:00 9,9 7,7 8,4 28 15 29 16 W 1012,5 10
23.04.2018 05:00:00 10,0 7,9 8,4 25 14 32 18 W 1012,2 10
23.04.2018 04:00:00 10,1 8,0 8,4 29 16 32 18 W 1011,8 9
23.04.2018 03:00:00 10,3 7,7 8,4 29 16 36 19 WSW 1011,4 10
23.04.2018 02:00:00 10,5 7,7 8,4 37 20 40 21 W 1011,2 10
23.04.2018 01:00:00 10,3 7,7 8,2 29 16 40 21 WSW 1010,7 10
23.04.2018 00:00:00 10,9 8,1 8,3 42 23 47 25 WSW 1010,0 9
22.04.2018 23:00:00 11,8 8,0 8,4 50 27 54 29 SW 1009,0 10
22.04.2018 22:00:00 11,8 7,7 8,4 48 26 50 27 WSW 1008,8 10
22.04.2018 21:00:00 11,7 8,1 8,9 48 26 50 27 SW 1008,4 10
22.04.2018 20:00:00 13,4 7,2 8,9 47 25 54 29 WSW 1008,3 14
22.04.2018 19:00:00 14,5 6,5 8,4 40 21 47 25 WSW 1008,5 17
22.04.2018 18:00:00 14,1 7,6 8,4 40 21 43 23 WSW 1008,7 17
22.04.2018 17:00:00 14,1 10,0 8,5 29 16 32 18 WSW 1009,0 9
22.04.2018 16:00:00 13,5 9,9 8,6 24 13 25 14 W 1009,6 6
22.04.2018 15:00:00 13,5 10,3 8,4 28 15 29 16 W 1009,7 5
22.04.2018 14:00:00 19,8 12,4 8,3 22 12 22 12 SSW 1009,6 8
22.04.2018 13:00:00 17,7 11,5 8,2 22 12 25 14 SSE 1009,8 9
22.04.2018 12:00:00 16,5 11,0 8,1 22 12 36 19 SSE 1010,3 9
22.04.2018 11:00:00 14,1 10,1 8,1 22 12 36 19 SSE 1011,4 9
22.04.2018 10:00:00 14,1 10,1 8,2 21 11 32 18 SE 1011,0 9
22.04.2018 09:00:00 12,9 8,8 8,2 29 16 29 16 SE 1011,5 10
22.04.2018 08:00:00 13,5 8,5 8,4 22 12 25 14 SSE 1012,0 10
22.04.2018 07:00:00 12,4 9,6 8,5 18 10 29 16 SSW 1013,1 10
22.04.2018 06:00:00 13,8 9,1 8,2 31 17 29 16 SE 1013,1 10
22.04.2018 05:00:00 14,4 9,0 8,3 29 16 32 18 SE 1013,8 14
22.04.2018 04:00:00 15,0 9,1 8,1 29 16 32 18 ESE 1014,4 16
22.04.2018 03:00:00 16,0 8,5 8,3 34 18 32 18 ESE 1015,3 10
22.04.2018 02:00:00 15,4 9,1 8,2 31 17 32 18 ESE 1015,9 10
22.04.2018 01:00:00 15,8 9,0 7,9 29 16 29 16 E 1016,1 10
22.04.2018 00:00:00 15,7 8,8 8,0 24 13 25 14 E 1017,0 10
21.04.2018 23:00:00 16,9 9,0 8,0 24 13 25 14 E 1017,5 10
21.04.2018 22:00:00 15,0 8,7 8,1 24 13 25 14 E 1017,7 10
21.04.2018 21:00:00 14,1 7,7 8,2 28 15 29 16 ENE 1017,8 10
21.04.2018 20:00:00 13,0 7,5 8,5 22 12 29 16 ENE 1018,2 22
21.04.2018 19:00:00 13,2 7,2 8,2 25 14 29 16 NE 1018,9 23
21.04.2018 18:00:00 12,7 7,7 8,3 29 16 29 16 NE 1019,5 20
21.04.2018 17:00:00 11,5 8,1 8,3 25 14 29 16 NE 1020,3 14
21.04.2018 16:00:00 12,1 8,8 8,4 25 14 29 16 ENE 1020,8 11
21.04.2018 15:00:00 11,1 8,8 8,4 29 16 29 16 NE 1021,6 9
21.04.2018 14:00:00 9,6 8,3 8,1 28 15 29 16 NE 1022,1 7
21.04.2018 13:00:00 9,7 8,2 8,0 18 10 22 12 ENE 1022,5 5
21.04.2018 12:00:00 9,5 8,1 8,0 22 12 22 12 ENE 1023,1 5
21.04.2018 11:00:00 9,3 7,7 7,9 22 12 22 12 ENE 1023,2 5
21.04.2018 10:00:00 9,1 7,7 7,9 22 12 25 14 ENE 1023,0 7
21.04.2018 09:00:00 9,2 7,6 7,8 16 9 18 10 NE 1023,0 7
21.04.2018 08:00:00 8,8 7,6 7,9 15 8 14 8 NE 1023,1 7
21.04.2018 07:00:00 8,7 7,5 8,1 14 8 14 8 NE 1022,9 7
21.04.2018 06:00:00 8,7 7,4 8,2 14 8 18 10 NE 1022,3 7
21.04.2018 05:00:00 8,6 7,3 8,0 18 10 25 14 NE 1022,4 8
21.04.2018 04:00:00 8,7 7,3 8,0 22 12 25 14 NE 1022,5 7
21.04.2018 03:00:00 8,7 7,3 7,9 25 14 29 16 NNE 1022,6 5
21.04.2018 02:00:00 8,6 7,3 7,9 29 16 29 16 N 1022,9 4,1
21.04.2018 01:00:00 9,4 7,4 7,8 21 11 25 14 N 1022,9 5
21.04.2018 00:00:00 10,2 7,8 7,9 29 16 29 16 NNE 1022,7 5
20.04.2018 23:00:00 10,0 7,8 7,9 31 17 29 16 NNE 1022,5 3,3
20.04.2018 22:00:00 9,0 7,2 7,9 18 10 25 14 N 1022,9 3,0
20.04.2018 21:00:00 8,8 7,2 7,8 29 16 29 16 N 1022,6 2,7
20.04.2018 20:00:00 8,8 7,1 7,9 22 12 29 16 NNW 1022,2 2,8
20.04.2018 19:00:00 9,6 7,2 7,9 29 16 32 18 NW 1022,3 4,4
20.04.2018 18:00:00 10,1 7,9 8,0 25 14 25 14 WNW 1022,4 4,7
20.04.2018 17:00:00 10,8 8,2 8,0 18 10 29 16 WNW 1022,6 5
20.04.2018 16:00:00 11,3 8,1 7,8 29 16 32 18 WNW 1022,5 7
20.04.2018 15:00:00 11,6 7,7 8,0 24 13 25 14 W 1022,6 7
20.04.2018 14:00:00 13,5 7,6 7,9 26 14 25 14 W 1022,9 6
20.04.2018 13:00:00 13,7 9,2 7,8 26 14 25 14 W 1023,0 4,1
20.04.2018 12:00:00 13,5 8,8 7,9 22 12 32 18 W 1022,9 5
20.04.2018 11:00:00 15,8 9,3 7,9 11 6 14 8 SW 1022,5 6
20.04.2018 10:00:00 15,6 9,1 7,8 9 5 11 6 SSW 1022,1 7
20.04.2018 09:00:00 14,7 9,2 7,7 13 7 14 8 WSW 1022,2 4,9
20.04.2018 08:00:00 14,1 9,2 7,6 11 6 14 8 WSW 1022,1 5
20.04.2018 07:00:00 12,9 9,1 7,6 14 8 25 14 WSW 1022,1 6
20.04.2018 06:00:00 15,6 9,8 7,8 26 14 25 14 WSW 1021,8 10
20.04.2018 05:00:00 17,3 9,7 7,9 22 12 25 14 SW 1021,8 10
20.04.2018 04:00:00 18,7 9,3 7,8 22 12 25 14 S 1022,1 9
20.04.2018 03:00:00 20,6 7,9 7,8 22 12 29 16 S 1022,4 10
20.04.2018 02:00:00 19,6 8,3 7,7 24 13 25 14 SSE 1022,7 9
20.04.2018 01:00:00 20,0 6,9 7,7 18 10 18 10 SE 1022,8 10
20.04.2018 00:00:00 19,6 5,7 7,7 14 8 22 12 SE 1023,0 12
19.04.2018 23:00:00 19,1 6,9 7,9 22 12 22 12 E 1023,2 10
19.04.2018 22:00:00 18,3 6,6 7,9 24 13 25 14 ENE 1023,3 10
19.04.2018 21:00:00 18,3 6,4 7,8 18 10 22 12 ENE 1023,0 11
19.04.2018 20:00:00 19,2 6,3 7,7 18 10 18 10 ENE 1022,8 11
19.04.2018 19:00:00 18,4 7,3 7,8 16 9 22 12 NE 1023,3 9
19.04.2018 18:00:00 21,9 7,9 7,7 8 4 11 6 N 1023,6 10
19.04.2018 17:00:00 19,9 7,9 7,8 4 2 7 4 - 1024,0 10
19.04.2018 16:00:00 20,8 8,0 7,9 8 4 7 4 SSE 1024,4 10
19.04.2018 15:00:00 21,6 7,8 7,9 13 7 18 10 SSE 1024,8 10
19.04.2018 14:00:00 21,0 7,4 7,8 21 11 22 12 SSE 1025,1 10
19.04.2018 13:00:00 19,6 7,8 7,5 21 11 22 12 SSE 1025,4 10
19.04.2018 12:00:00 18,4 9,2 7,7 24 13 29 16 SSE 1025,5 10
19.04.2018 11:00:00 17,0 8,0 7,7 29 16 32 18 SSE 1025,6 10
19.04.2018 10:00:00 17,1 7,9 7,7 34 18 32 18 SE 1025,7 10

tt = Température de l'air
td = dewpoint
tw = water temperature
ff = Vitesse du vent
fx = gusts
dd = Direction du vent
ppp = reduced air pressure
vv = visibility

stations d'obs. à proximité